Regional Weather Roundup
Issued by NWS

Home | Current Version | Previous Version | Graphics & Text | Print | Product List | Glossary On
Versions: 1 2 3 4 5 6 7 8 9 10 11 12 13 14 15 16 17 18 19 20 21 22 23 24 25 26 27 28 29 30 31 32 33 34 35 36 37 38 39 40 41 42 43 44 45 46 47 48 49 50
000
ASUS43 KFSD 240102
RWRSD

WEATHER ROUNDUP FOR SOUTH DAKOTA
NATIONAL WEATHER SERVICE SIOUX FALLS SD
800 PM CDT WED AUG 23 2017

NOTE: "FAIR" INDICATES FEW OR NO CLOUDS BELOW 12,000 FEET WITH NO
SIGNIFICANT WEATHER AND/OR OBSTRUCTIONS TO VISIBILITY.


SDZ001>005-009-010-012>017-240200-
NORTHWEST AND NORTH CENTRAL SOUTH DAKOTA

CITY           SKY/WX    TMP DP  RH WIND       PRES   REMARKS
BUFFALO          N/A     83  48  29 E10       29.89F
FAITH            N/A     79  60  52 E10       29.94F
MOBRIDGE       CLEAR     76  64  66 E9        29.90S
$$

SDZ012>016-024>037-041>051-057-063-072>074-240200-
SOUTHWEST AND SOUTH CENTRAL SOUTH DAKOTA

CITY           SKY/WX    TMP DP  RH WIND       PRES   REMARKS
RAPID CTY ARPT CLOUDY    84  52  33 NE6       29.94F
PIERRE         CLEAR     80  64  58 NE8       29.87S
CUSTER         CLEAR     74  50  42 E14       30.11S
ELLSWORTH AFB  CLOUDY    86  49  27 E7        29.94F
PHILIP         CLEAR     85  57  38 NE14      29.89R
PINE RIDGE     CLOUDY    85  57  38 E8        29.93F
SPEARFISH      LGT RAIN  81  45  28 E7        30.01S
WINNER         FAIR      83  66  56 S10       29.88F
$$

SDZ004>011-016>023-039-040-240200-
NORTHEAST SOUTH DAKOTA

CITY           SKY/WX    TMP DP  RH WIND       PRES   REMARKS
ABERDEEN       CLEAR     74  62  66 E7        29.94F
WATERTOWN      PTCLDY    70  59  68 SE8       29.98F
BROOKINGS      MOCLDY    71  60  68 SE9       30.00S
SISSETON         N/A     69  58  67 SE6       29.96S
$$

SDZ017-020-022-023-036>040-048>070-240200-
SOUTHEAST SOUTH DAKOTA

CITY           SKY/WX    TMP DP  RH WIND       PRES   REMARKS
SIOUX FALLS    MOCLDY    72  62  71 SE9       30.00S
HURON          CLEAR     74  62  66 SE10      29.92F
CHAMBERLAIN    CLEAR     81  67  61 E6        29.87F
MITCHELL       CLEAR     76  62  62 SE12      29.93F
YANKTON        MOCLDY    74  62  66 SE9       29.97S
$$

ABBREVIATIONS USED IN REMARKS
   TC - TEMPERATURE IN CELSIUS
  WCI - WIND CHILL INDEX
   HX - HEAT INDEX
  VSB - VISIBILITY





USA.gov is the U.S. government's official web portal to all federal, state and local government web resources and services.